EUTELSAT HOTBIRD 13C

Last updated on Sat Aug 15 2026 00:02:57 GMT+0000 (Coordinated Universal Time)

1 33459U 08065A 26226.48667573 -.00000298 00000+0 00000+0 0 9995 2 33459 3.0957 78.4741 0003390 72.7281 296.6006 1.00270771 47930
UTC large
Height (km)
Speed (km/s)
/
Latitude / Longitude
Inclination (degrees)
Orbital Period (minutes)
Azimuth
Elevation
Range (km)
Doppler Factor

Next 0 passes for location: London (51.5072 / 0.1276)

No passes found over London.
EUTELSAT HOTBIRD 13C